Weather in Nanjing

China     32°03′38″N   118°46′44″E
temp.,
°C
wind,
m/s
gust,
m/s
humid.,
%
clouds,
%
prec.,
mm/h
press.,
hPa
HPBL,
m
21 april, wed
wed2123:00+16ese71472100 0.0 1015467
02:00+15ese6118196 0.0 1013369
05:00+14e388771 0.0 1013277
08:00+16e478097 0.0 1015468
11:00+19e3776100 0.8 1014467
14:00+20ese2674100 1.6 1012332
17:00+20ese3778100 0.1 1012304
20:00+18ese31082100 0.1 1013291
22 april, thu
thu2223:00+17ese4985100 0.3 1013267
02:00+16ese269297 0.5 1011180
05:00+16e2295100 1.4 101066
08:00+16nw0197100 6.6 101156
11:00+17ssw1295100 2.6 1012194
14:00+18w3794100 4.9 1010428
17:00+18nw3590100 0.1 1010437
20:00+17nw2394100 0.1 1011126
23 april, fri
fri2323:00+16nw2593100 0.0 1013193
02:00+16nnw1395100 0.0 1012142
05:00+16n2593100 0.0 1013221
08:00+16n3586100 0.0 1014333
11:00+20n236650 0.0 1014961
14:00+24nne235445 0.0 10121451
17:00+23ene446292 0.0 1013697
20:00+20ene357197 0.0 1014173
24 april, sat
sat2423:00+17e478672 0.0 1015279
02:00+16ene368199 0.0 1016296
05:00+15ne498099 0.0 1016388
08:00+15ne577897 0.0 1018485
11:00+20ne4462100 0.0 1018877
14:00+21nne3357100 0.0 10171275
17:00+19nne4567100 0.0 1016725
20:00+17nne4777100 0.0 1018365
25 april, sun
sun2523:00+16ne3882100 0.0 1018448
02:00+15ne4882100 0.1 1018393
05:00+15ne4885100 0.1 1017336
08:00+16ene4783100 0.1 1018412
11:00+19e4674100 0.0 1018901
14:00+22e566796 0.2 10161137
17:00+19ese3884100 1.3 1015375
20:00+17e41075100 0.1 1018561